Kailua Kona, HI

5:58 PM HST on September 25, 2016 (GMT -1000)
Kona International At Keahole

Weather History for PHKO - April, 2015

Change the Weather History Date:

Saturday, April 11, 2015

  Actual Average Record
Temperature  
Mean Temperature 78 °F -  
Max Temperature 84 °F 80 °F 89 °F (1983)
Min Temperature 73 °F 69 °F 65 °F (1983)
Cooling Degree Days 14    
Growing Degree Days 28 (Base 50)    
Moisture  
Dew Point 67 °F    
Average Humidity 70    
Maximum Humidity 88    
Minimum Humidity 56    
Precipitation  
Precipitation 0.05 in - - ()
Sea Level Pressure  
Sea Level Pressure 30.02 in    
Wind  
Wind Speed 7 mph (SSE)    
Max Wind Speed 12 mph    
Max Gust Speed 17 mph    
Visibility 10 miles    
Events Rain    
Averages and records for this station are not official NWS values.
T = Trace of Precipitation, MM = Missing Value Source: NWS Daily Summary

Daily Weather History Graph

Daily Weather History Graph

Search for Another Location

Airport or City:

Trip Planner

Search our weather history database for the weather conditions in past years. The results will help you decide how hot, cold, wet, or windy it might be!

Date:

Astronomy

Apr. 11, 2015 Rise Set
Actual Time 6:09 AM HST 6:41 PM HST
Civil Twilight 5:47 AM HST 7:03 PM HST
Nautical Twilight 5:21 AM HST 7:29 PM HST
Astronomical Twilight 4:54 AM HST 7:55 PM HST
Moon 12:24 AM HST (4/11) 11:57 AM HST (4/11)
Length of Visible Light 13h 16m
Length of Day
12h 31m
Waning Gibbous, 53% of the Moon is Illuminated
Apr 11
Waning Gibbous
Apr 11
Last Quarter
Apr 18
New
Apr 25
First Quarter
May 3
Full

Hourly Weather History & Observations

Time (HST) Temp. Heat Index Dew Point Humidity Pressure Visibility Wind Dir Wind Speed Gust Speed Precip Events Conditions
12:53 AM 77.0 °F - 68.0 °F 74% 30.03 in 10.0 mi South 6.9 mph - N/A   Overcast
1:53 AM 75.9 °F - 66.0 °F 71% 30.01 in 10.0 mi ESE 6.9 mph - N/A   Overcast
2:53 AM 75.9 °F - 66.0 °F 71% 30.00 in 10.0 mi ESE 3.5 mph - N/A   Overcast
3:53 AM 75.9 °F - 66.0 °F 71% 29.99 in 10.0 mi Calm Calm - N/A   Mostly Cloudy
4:39 AM 73.4 °F - 69.8 °F 88% 29.99 in 10.0 mi NNW 8.1 mph - 0.00 in Rain Light Rain
4:53 AM 73.9 °F - 68.0 °F 82% 30.00 in 6.0 mi WSW 5.8 mph - 0.01 in Rain Rain
5:02 AM 73.4 °F - 66.2 °F 78% 30.00 in 3.0 mi NNE 3.5 mph - 0.04 in Rain Rain
5:53 AM 73.0 °F - 69.1 °F 87% 30.01 in 9.0 mi ESE 5.8 mph - 0.04 in Rain Light Rain
6:53 AM 73.9 °F - 68.0 °F 82% 30.02 in 10.0 mi ESE 6.9 mph - 0.00 in   Mostly Cloudy
7:53 AM 77.0 °F - 68.0 °F 74% 30.04 in 10.0 mi SE 4.6 mph - N/A   Partly Cloudy
8:53 AM 79.0 °F - 66.9 °F 66% 30.05 in 10.0 mi South 5.8 mph - N/A   Overcast
9:53 AM 79.0 °F - 68.0 °F 69% 30.05 in 10.0 mi Variable 5.8 mph - N/A   Scattered Clouds
10:53 AM 80.1 °F 82.7 °F 68.0 °F 67% 30.04 in 10.0 mi SSW 6.9 mph - N/A   Scattered Clouds
11:53 AM 82.0 °F 85.5 °F 69.1 °F 65% 30.03 in 10.0 mi South 9.2 mph - N/A   Mostly Cloudy
12:53 PM 82.0 °F 84.9 °F 68.0 °F 62% 30.01 in 10.0 mi SW 9.2 mph - N/A   Scattered Clouds
1:53 PM 84.0 °F 86.5 °F 66.9 °F 56% 29.98 in 10.0 mi SSW 11.5 mph 17.3 mph N/A   Scattered Clouds
2:53 PM 82.9 °F 85.4 °F 66.9 °F 58% 29.96 in 10.0 mi South 9.2 mph - N/A   Scattered Clouds
3:53 PM 81.0 °F 83.8 °F 68.0 °F 65% 29.97 in 10.0 mi South 11.5 mph - N/A   Mostly Cloudy
4:53 PM 82.0 °F 84.5 °F 66.9 °F 60% 29.98 in 10.0 mi SSW 10.4 mph - N/A   Mostly Cloudy
5:53 PM 80.1 °F 82.7 °F 68.0 °F 67% 29.99 in 10.0 mi South 11.5 mph - N/A   Mostly Cloudy
6:53 PM 78.1 °F - 68.0 °F 71% 30.01 in 10.0 mi South 9.2 mph - N/A   Partly Cloudy
7:36 PM 77.0 °F - 66.2 °F 69% 30.03 in 10.0 mi SE 11.5 mph - N/A   Mostly Cloudy
7:51 PM 75.2 °F - 66.2 °F 73% 30.03 in 10.0 mi SE 9.2 mph - N/A   Scattered Clouds
7:53 PM 75.9 °F - 66.9 °F 74% 30.04 in 10.0 mi SE 9.2 mph - N/A   Scattered Clouds
8:53 PM 77.0 °F - 66.9 °F 71% 30.05 in 10.0 mi South 8.1 mph - N/A   Clear
9:53 PM 75.9 °F - 66.9 °F 74% 30.06 in 10.0 mi ESE 3.5 mph - N/A   Scattered Clouds
10:53 PM 77.0 °F - 66.0 °F 69% 30.06 in 10.0 mi Calm Calm - N/A   Clear
11:53 PM 77.0 °F - 61.0 °F 58% 30.04 in 10.0 mi NE 6.9 mph - N/A   Mostly Cloudy